This demonstration page uses our WeatherBlox Daily Observations layout. Learn more.

Left ArrowRight Arrow

34.02893, -84.19858

Hourly Observations for March 12, 2022

Temp ( °F °C ) Dew Point ( °F °C ) Humidity (%) Winds ( mph kmh ) Pressure ( in mb ) Visibility ( mi km ) Precip ( " mm )
12:27 am 00:27 Cloudy with Light Rain 53 11.7 53 11.7 100 100 Calm 29.64 1004 3 4 0.08 2.03
12:53 am 00:53 Cloudy with Light Rain 53 11.7 52 11.1 96 96 SSW 5 7 29.64 1004 5 8 0.11 2.79
1:13 am 01:13 Cloudy with Rain 53 11.7 52 11.1 96 96 Calm 29.61 1003 3 4 0.03 0.76
1:20 am 01:20 Cloudy with Nearby Thunderstorms 53 11.7 52 11.1 96 96 SSE 3 6 29.60 1003 3 4 0.05 1.27
1:28 am 01:28 Cloudy with Nearby Thunderstorms 52 11.1 52 11.1 100 100 VRB 3 6 29.59 1002 4 6 0.06 1.52
1:40 am 01:40 Cloudy with Nearby Thunderstorms 53 11.7 53 11.7 100 100 Calm 29.57 1002 4 6 0.07 1.78
1:53 am 01:53 Cloudy with Nearby Thunderstorms 53 11.7 52 11.1 96 96 SSW 3 6 29.58 1002 5 8 0.08 2.03
2:13 am 02:13 Cloudy with Nearby Thunderstorms 53 11.7 53 11.7 100 100 WNW 6 9 29.58 1002 3 5 0.08 2.03
2:17 am 02:17 Cloudy with Heavy Rain 53 11.7 53 11.7 100 100 NW 13 20 29.59 1002 3 4 0.11 2.79
2:24 am 02:24 Cloudy with Rain 53 11.7 53 11.7 100 100 WNW 10 17 29.59 1002 3 5 0.14 3.56
2:34 am 02:34 Cloudy with Rain 52 11.1 51 10.6 97 97 WNW 17 28 29.60 1002 5 8 0.16 4.06
2:53 am 02:53 Cloudy with Light Rain 44 6.7 42 5.6 93 93 NW 22 35 29.61 1003 9 14 0.18 4.57
3:26 am 03:26 Cloudy with Light Rain 40 4.4 38 3.3 93 93 NW 13 20 29.63 1003 10 16 0.01 0.25
3:53 am 03:53 Cloudy with Rain 39 3.9 36 2.2 89 89 WNW 22 35 29.65 1004 4 6 0.02 0.51
4:53 am 04:53 Cloudy with Light Rain 35 1.7 33 0.6 93 93 NW 14 22 29.70 1006 10 16 0.05 1.27
5:19 am 05:19 Cloudy 36 2.2 33 0.6 89 89 NW 16 26 29.71 1006 10 16 0.00 0.00
5:53 am 05:53 Cloudy 34 1.1 31 -0.6 89 89 NW 16 26 29.68 1005 10 16 0.00 0.00
6:53 am 06:53 Cloudy 32 0 28 -2.2 85 85 WNW 25 41 29.77 1008 10 16 0.00 0.00
7:26 am 07:26 Cloudy 31 -0.6 26 -3.3 82 82 NW 20 31 29.83 1010 10 16 0.00 0.00
7:53 am 07:53 Cloudy 30 -1.1 24 -4.4 79 79 WNW 25 41 29.86 1011 10 16 0.00 0.00
8:53 am 08:53 Windy with Snow Likely 30 -1.1 21 -6.1 69 69 NW 23 37 29.93 1014 8 13 0.00 0.00
9:53 am 09:53 Cloudy 29 -1.7 20 -6.7 69 69 NW 22 35 29.99 1016 10 16 0.00 0.00
10:53 am 10:53 Cloudy 30 -1.1 18 -7.8 61 61 NW 21 33 30.04 1017 10 16 0.00 0.00
11:53 am 11:53 Cloudy 32 0 18 -7.8 56 56 WNW 22 35 30.07 1018 10 16 0.00 0.00
12:53 pm 12:53 Mostly Sunny 33 0.6 14 -10 45 45 NW 21 33 30.09 1019 10 16 0.00 0.00
1:53 pm 13:53 Sunny 34 1.1 14 -10 44 44 WNW 22 35 30.10 1019 10 16 0.00 0.00
2:53 pm 14:53 Sunny 35 1.7 11 -11.7 37 37 NNW 21 33 30.12 1020 10 16 0.00 0.00
3:53 pm 15:53 Sunny 36 2.2 11 -11.7 35 35 NW 21 33 30.14 1021 10 16 0.00 0.00
4:53 pm 16:53 Sunny 34 1.1 8 -13.3 34 34 NW 26 43 30.18 1022 10 16 0.00 0.00
5:53 pm 17:53 Sunny 33 0.6 7 -13.9 33 33 NW 21 33 30.22 1023 10 16 0.00 0.00
6:53 pm 18:53 Clear 31 -0.6 7 -13.9 36 36 NW 13 20 30.26 1025 10 16 0.00 0.00
7:53 pm 19:53 Clear 30 -1.1 5 -15 34 34 NW 10 17 30.29 1026 10 16 0.00 0.00
8:53 pm 20:53 Clear 29 -1.7 5 -15 36 36 NNW 15 24 30.33 1027 10 16 0.00 0.00
9:53 pm 21:53 Clear 28 -2.2 5 -15 37 37 NW 13 20 30.35 1028 10 16 0.00 0.00
10:53 pm 22:53 Clear 27 -2.8 6 -14.4 41 41 NNW 14 22 30.37 1029 10 16 0.00 0.00
11:53 pm 23:53 Clear 27 -2.8 7 -13.9 43 43 WNW 9 15 30.37 1029 10 16 0.00 0.00

Powered by AerisWeather